Time,TemperatureF,DewpointF,PressureIn,WindDirection,WindDirectionDegrees,WindSpeedMPH,WindSpeedGustMPH,Humidity,HourlyPrecipIn,Conditions,Clouds,dailyrainin,SoftwareType,DateUTC
2014-02-07 00:01:00,23.9,18.3,30.37,SW,236,0.0,4.0,79,0.00,,,0.38,meteohub,2014-02-07 05:01:00,
2014-02-07 00:02:00,23.9,18.3,30.37,WSW,252,0.0,4.0,79,0.00,,,0.38,meteohub,2014-02-07 05:02:00,
2014-02-07 00:03:00,23.9,18.3,30.37,WSW,252,0.0,4.0,79,0.00,,,0.38,meteohub,2014-02-07 05:03:00,
2014-02-07 00:04:00,23.9,18.3,30.37,WSW,244,1.0,4.0,79,0.00,,,0.38,meteohub,2014-02-07 05:04:00,
2014-02-07 00:08:00,23.9,18.3,30.37,West,274,0.0,4.0,79,0.00,,,0.00,meteohub,2014-02-07 05:08:00,
2014-02-07 00:13:00,23.9,18.3,30.37,WNW,290,1.0,3.0,79,0.00,,,0.00,meteohub,2014-02-07 05:13:00,
2014-02-07 00:18:00,23.9,18.3,30.37,West,273,0.0,1.0,79,0.00,,,0.00,meteohub,2014-02-07 05:18:00,
2014-02-07 00:23:00,23.7,18.5,30.37,West,273,0.0,1.0,80,0.00,,,0.00,meteohub,2014-02-07 05:23:00,
2014-02-07 00:25:00,23.7,18.5,30.37,West,274,0.0,1.0,80,0.00,,,0.00,meteohub,2014-02-07 05:25:00,
2014-02-07 00:31:00,23.7,18.5,30.36,WSW,254,0.0,1.0,80,0.00,,,0.00,meteohub,2014-02-07 05:31:00,
2014-02-07 00:36:00,23.7,18.7,30.36,NW,304,2.0,2.0,81,0.00,,,0.00,meteohub,2014-02-07 05:36:00,
2014-02-07 00:41:00,23.7,18.5,30.36,West,280,0.0,5.0,80,0.00,,,0.00,meteohub,2014-02-07 05:41:00,
2014-02-07 00:46:00,23.7,18.7,30.36,West,276,2.0,5.0,81,0.00,,,0.00,meteohub,2014-02-07 05:46:00,
2014-02-07 00:51:00,23.7,18.7,30.36,WSW,253,0.0,5.0,81,0.00,,,0.00,meteohub,2014-02-07 05:51:00,
2014-02-07 00:56:00,23.7,18.7,30.36,WSW,250,3.0,3.0,81,0.00,,,0.00,meteohub,2014-02-07 05:56:00,
2014-02-07 01:01:00,23.5,18.5,30.36,WSW,250,1.0,6.0,81,0.00,,,0.00,meteohub,2014-02-07 06:01:00,
2014-02-07 01:06:00,23.5,18.5,30.35,West,278,0.0,6.0,81,0.00,,,0.00,meteohub,2014-02-07 06:06:00,
2014-02-07 01:11:00,23.5,18.5,30.35,WNW,283,0.0,6.0,81,0.00,,,0.00,meteohub,2014-02-07 06:11:00,
2014-02-07 01:16:00,23.5,18.5,30.35,West,275,1.0,5.0,81,0.00,,,0.00,meteohub,2014-02-07 06:16:00,
2014-02-07 01:21:00,23.5,18.5,30.35,West,280,0.0,5.0,81,0.00,,,0.00,meteohub,2014-02-07 06:21:00,
2014-02-07 01:26:00,23.4,18.3,30.36,WSW,256,3.0,5.0,81,0.00,,,0.00,meteohub,2014-02-07 06:26:00,
2014-02-07 01:31:00,23.4,18.3,30.36,West,281,0.0,4.0,81,0.00,,,0.00,meteohub,2014-02-07 06:31:00,
2014-02-07 01:36:00,23.4,18.1,30.36,West,270,4.0,4.0,80,0.00,,,0.00,meteohub,2014-02-07 06:36:00,
2014-02-07 01:41:00,23.4,18.3,30.36,WNW,285,1.0,10.0,81,0.00,,,0.00,meteohub,2014-02-07 06:41:00,
2014-02-07 01:46:00,23.4,18.1,30.36,SW,215,2.0,10.0,80,0.00,,,0.00,meteohub,2014-02-07 06:46:00,
2014-02-07 01:51:00,23.4,17.8,30.36,East,94,0.0,6.0,79,0.00,,,0.00,meteohub,2014-02-07 06:51:00,
2014-02-07 01:56:00,23.4,17.6,30.36,SE,130,0.0,9.0,78,0.00,,,0.00,meteohub,2014-02-07 06:56:00,
2014-02-07 02:01:00,23.4,17.6,30.36,ENE,70,1.0,9.0,78,0.00,,,0.00,meteohub,2014-02-07 07:01:00,
2014-02-07 02:06:00,23.4,17.2,30.37,SW,236,2.0,9.0,77,0.00,,,0.00,meteohub,2014-02-07 07:06:00,
2014-02-07 02:11:00,23.4,17.2,30.37,WNW,287,2.0,9.0,77,0.00,,,0.00,meteohub,2014-02-07 07:11:00,
2014-02-07 02:16:00,23.4,16.9,30.36,ESE,109,3.0,9.0,76,0.00,,,0.00,meteohub,2014-02-07 07:16:00,
2014-02-07 02:22:00,23.4,17.2,30.37,SW,236,2.0,9.0,77,0.00,,,0.00,meteohub,2014-02-07 07:22:00,
2014-02-07 02:27:00,23.4,17.2,30.37,SSW,205,0.0,6.0,77,0.00,,,0.00,meteohub,2014-02-07 07:27:00,
2014-02-07 02:32:00,23.2,17.4,30.36,West,281,0.0,6.0,78,0.00,,,0.00,meteohub,2014-02-07 07:32:00,
2014-02-07 02:37:00,23.2,17.6,30.36,WNW,289,0.0,3.0,79,0.00,,,0.00,meteohub,2014-02-07 07:37:00,
2014-02-07 02:42:00,23.2,17.4,30.36,West,274,4.0,4.0,78,0.00,,,0.00,meteohub,2014-02-07 07:42:00,
2014-02-07 02:47:00,22.8,17.2,30.37,West,277,0.0,7.0,79,0.00,,,0.00,meteohub,2014-02-07 07:47:00,
2014-02-07 02:52:00,22.8,17.6,30.37,WNW,298,0.0,7.0,80,0.00,,,0.00,meteohub,2014-02-07 07:52:00,
2014-02-07 02:57:00,22.6,17.8,30.37,West,276,1.0,7.0,81,0.00,,,0.00,meteohub,2014-02-07 07:57:00,
2014-02-07 03:02:00,22.6,17.8,30.37,West,281,0.0,7.0,81,0.00,,,0.00,meteohub,2014-02-07 08:02:00,
2014-02-07 03:07:00,22.5,17.2,30.37,WNW,299,3.0,5.0,80,0.00,,,0.00,meteohub,2014-02-07 08:07:00,
2014-02-07 03:12:00,22.3,16.7,30.37,NW,304,0.0,9.0,79,0.00,,,0.00,meteohub,2014-02-07 08:12:00,
2014-02-07 03:17:00,22.3,16.5,30.38,West,278,2.0,9.0,78,0.00,,,0.00,meteohub,2014-02-07 08:17:00,
2014-02-07 03:22:00,22.1,16.0,30.38,West,269,4.0,9.0,77,0.00,,,0.00,meteohub,2014-02-07 08:22:00,
2014-02-07 03:27:00,22.1,15.6,30.38,West,268,0.0,6.0,76,0.00,,,0.00,meteohub,2014-02-07 08:27:00,
2014-02-07 03:32:00,22.1,15.1,30.38,West,262,3.0,6.0,74,0.00,,,0.00,meteohub,2014-02-07 08:32:00,
2014-02-07 03:37:00,21.9,15.3,30.39,West,278,8.0,8.0,75,0.00,,,0.00,meteohub,2014-02-07 08:37:00,
2014-02-07 03:42:00,21.7,15.1,30.39,WNW,293,1.0,8.0,75,0.00,,,0.00,meteohub,2014-02-07 08:42:00,
2014-02-07 03:47:00,21.6,14.9,30.39,West,281,1.0,8.0,75,0.00,,,0.00,meteohub,2014-02-07 08:47:00,
2014-02-07 03:52:00,21.6,15.3,30.39,West,270,0.0,8.0,76,0.00,,,0.00,meteohub,2014-02-07 08:52:00,
2014-02-07 03:57:00,21.6,15.4,30.40,WNW,288,0.0,7.0,77,0.00,,,0.00,meteohub,2014-02-07 08:57:00,
2014-02-07 04:03:00,21.4,15.3,30.39,North,354,0.0,6.0,77,0.00,,,0.00,meteohub,2014-02-07 09:03:00,
2014-02-07 04:08:00,21.0,15.3,30.40,NNW,328,0.0,5.0,78,0.00,,,0.00,meteohub,2014-02-07 09:08:00,
2014-02-07 04:13:00,20.8,15.1,30.40,WNW,287,1.0,5.0,78,0.00,,,0.00,meteohub,2014-02-07 09:13:00,
2014-02-07 04:18:00,20.8,15.1,30.40,WNW,283,1.0,5.0,78,0.00,,,0.00,meteohub,2014-02-07 09:18:00,
2014-02-07 04:23:00,20.7,14.5,30.39,WNW,290,0.0,6.0,77,0.00,,,0.00,meteohub,2014-02-07 09:23:00,
2014-02-07 04:28:00,20.7,14.9,30.40,NW,314,1.0,6.0,78,0.00,,,0.00,meteohub,2014-02-07 09:28:00,
2014-02-07 04:33:00,20.5,15.1,30.40,NW,308,0.0,5.0,79,0.00,,,0.00,meteohub,2014-02-07 09:33:00,
2014-02-07 04:38:00,20.5,15.1,30.40,West,274,1.0,3.0,79,0.00,,,0.00,meteohub,2014-02-07 09:38:00,
2014-02-07 04:43:00,20.3,15.1,30.40,West,277,0.0,2.0,80,0.00,,,0.00,meteohub,2014-02-07 09:43:00,
2014-02-07 04:48:00,20.1,14.9,30.40,West,280,0.0,1.0,80,0.00,,,0.00,meteohub,2014-02-07 09:48:00,
2014-02-07 04:53:00,19.9,15.1,30.40,WNW,283,0.0,1.0,81,0.00,,,0.00,meteohub,2014-02-07 09:53:00,
2014-02-07 04:58:00,19.9,15.1,30.40,WNW,283,0.0,1.0,81,0.00,,,0.00,meteohub,2014-02-07 09:58:00,
2014-02-07 05:03:00,19.9,15.3,30.41,WNW,283,0.0,1.0,82,0.00,,,0.00,meteohub,2014-02-07 10:03:00,
2014-02-07 05:08:00,19.8,14.9,30.41,SW,231,0.0,1.0,81,0.00,,,0.00,meteohub,2014-02-07 10:08:00,
2014-02-07 05:13:00,19.8,14.5,30.41,West,264,0.0,1.0,80,0.00,,,0.00,meteohub,2014-02-07 10:13:00,
2014-02-07 05:18:00,19.8,14.9,30.41,West,264,0.0,1.0,81,0.00,,,0.00,meteohub,2014-02-07 10:18:00,
2014-02-07 05:23:00,19.8,14.5,30.41,West,269,0.0,1.0,80,0.00,,,0.00,meteohub,2014-02-07 10:23:00,
2014-02-07 05:28:00,19.8,14.9,30.41,WSW,254,0.0,2.0,81,0.00,,,0.00,meteohub,2014-02-07 10:28:00,
2014-02-07 05:33:00,19.8,14.5,30.41,South,172,0.0,2.0,80,0.00,,,0.00,meteohub,2014-02-07 10:33:00,
2014-02-07 05:38:00,19.8,14.5,30.42,NW,321,0.0,2.0,80,0.00,,,0.00,meteohub,2014-02-07 10:38:00,
2014-02-07 05:43:00,19.8,14.5,30.42,WNW,294,0.0,5.0,80,0.00,,,0.00,meteohub,2014-02-07 10:43:00,
2014-02-07 05:49:00,19.8,14.5,30.41,WNW,293,1.0,5.0,80,0.00,,,0.00,meteohub,2014-02-07 10:49:00,
2014-02-07 05:54:00,19.6,14.7,30.41,WSW,249,2.0,5.0,81,0.00,,,0.00,meteohub,2014-02-07 10:54:00,
2014-02-07 05:59:00,19.6,14.7,30.41,WNW,291,0.0,4.0,81,0.00,,,0.00,meteohub,2014-02-07 10:59:00,
2014-02-07 06:04:00,19.6,14.9,30.41,WNW,285,0.0,4.0,82,0.00,,,0.00,meteohub,2014-02-07 11:04:00,
2014-02-07 06:09:00,19.4,14.7,30.41,SW,236,0.0,3.0,82,0.00,,,0.00,meteohub,2014-02-07 11:09:00,
2014-02-07 06:14:00,19.4,15.1,30.41,West,281,1.0,3.0,83,0.00,,,0.00,meteohub,2014-02-07 11:14:00,
2014-02-07 06:19:00,19.4,14.7,30.41,SSW,208,1.0,2.0,82,0.00,,,0.00,meteohub,2014-02-07 11:19:00,
2014-02-07 06:24:00,19.4,14.7,30.41,SSW,211,0.0,3.0,82,0.00,,,0.00,meteohub,2014-02-07 11:24:00,
2014-02-07 06:29:00,19.4,14.7,30.41,SW,236,1.0,3.0,82,0.00,,,0.00,meteohub,2014-02-07 11:29:00,
2014-02-07 06:34:00,19.2,14.7,30.41,WSW,250,3.0,3.0,82,0.00,,,0.00,meteohub,2014-02-07 11:34:00,
2014-02-07 06:39:00,19.2,14.4,30.41,SW,232,3.0,3.0,81,0.00,,,0.00,meteohub,2014-02-07 11:39:00,
2014-02-07 06:44:00,19.0,14.2,30.41,West,262,0.0,3.0,81,0.00,,,0.00,meteohub,2014-02-07 11:44:00,
2014-02-07 06:49:00,19.0,14.2,30.41,ESE,114,0.0,5.0,81,0.00,,,0.00,meteohub,2014-02-07 11:49:00,
2014-02-07 06:54:00,18.9,14.0,30.41,South,184,0.0,5.0,81,0.00,,,0.00,meteohub,2014-02-07 11:54:00,
2014-02-07 06:59:00,18.9,14.0,30.41,SSW,212,0.0,5.0,81,0.00,,,0.00,meteohub,2014-02-07 11:59:00,
2014-02-07 07:04:00,18.7,14.2,30.41,WSW,245,0.0,3.0,82,0.00,,,0.00,meteohub,2014-02-07 12:04:00,
2014-02-07 07:09:00,18.3,13.8,30.42,WSW,246,0.0,2.0,82,0.00,,,0.00,meteohub,2014-02-07 12:09:00,
2014-02-07 07:14:00,18.1,13.6,30.41,SE,136,0.0,2.0,82,0.00,,,0.00,meteohub,2014-02-07 12:14:00,
2014-02-07 07:19:00,18.0,13.6,30.41,SE,136,0.0,1.0,83,0.00,,,0.00,meteohub,2014-02-07 12:19:00,
2014-02-07 07:24:00,18.0,13.6,30.41,ESE,108,0.0,0.0,83,0.00,,,0.00,meteohub,2014-02-07 12:24:00,
2014-02-07 07:29:00,18.0,13.6,30.41,ESE,108,0.0,1.0,83,0.00,,,0.00,meteohub,2014-02-07 12:29:00,
2014-02-07 07:34:00,18.0,13.6,30.41,ESE,109,0.0,1.0,83,0.00,,,0.00,meteohub,2014-02-07 12:34:00,
2014-02-07 07:40:00,18.0,13.6,30.41,East,100,0.0,1.0,83,0.00,,,0.00,meteohub,2014-02-07 12:40:00,
2014-02-07 07:45:00,18.1,13.6,30.41,East,93,1.0,0.0,82,0.00,,,0.00,meteohub,2014-02-07 12:45:00,
2014-02-07 07:50:00,18.3,13.8,30.41,ESE,121,0.0,0.0,82,0.00,,,0.00,meteohub,2014-02-07 12:50:00,
2014-02-07 07:55:00,18.7,13.8,30.41,SE,141,0.0,4.0,81,0.00,,,0.00,meteohub,2014-02-07 12:55:00,
2014-02-07 08:00:00,18.7,13.5,30.42,West,259,0.0,4.0,80,0.00,,,0.00,meteohub,2014-02-07 13:00:00,
2014-02-07 08:05:00,18.9,13.6,30.42,West,259,0.0,1.0,80,0.00,,,0.00,meteohub,2014-02-07 13:05:00,
2014-02-07 08:10:00,18.9,13.6,30.42,SSW,193,0.0,1.0,80,0.00,,,0.00,meteohub,2014-02-07 13:10:00,
2014-02-07 08:15:00,19.0,13.6,30.42,SW,231,0.0,2.0,79,0.00,,,0.00,meteohub,2014-02-07 13:15:00,
2014-02-07 08:20:00,19.2,13.8,30.42,East,86,0.0,2.0,79,0.00,,,0.00,meteohub,2014-02-07 13:20:00,
2014-02-07 08:25:00,19.4,14.0,30.42,West,264,0.0,1.0,79,0.00,,,0.00,meteohub,2014-02-07 13:25:00,
2014-02-07 08:30:00,19.6,13.8,30.42,West,280,0.0,1.0,78,0.00,,,0.00,meteohub,2014-02-07 13:30:00,
2014-02-07 08:35:00,19.6,13.8,30.42,South,173,0.0,1.0,78,0.00,,,0.00,meteohub,2014-02-07 13:35:00,
2014-02-07 08:40:00,19.9,14.2,30.42,South,173,0.0,1.0,78,0.00,,,0.00,meteohub,2014-02-07 13:40:00,
2014-02-07 08:45:00,20.3,14.5,30.42,South,173,0.0,1.0,78,0.00,,,0.00,meteohub,2014-02-07 13:45:00,
2014-02-07 08:50:00,20.7,14.5,30.42,West,278,1.0,1.0,77,0.00,,,0.00,meteohub,2014-02-07 13:50:00,
2014-02-07 08:55:00,20.5,14.4,30.42,West,278,0.0,1.0,77,0.00,,,0.00,meteohub,2014-02-07 13:55:00,
2014-02-07 09:00:00,20.1,14.0,30.43,West,262,0.0,4.0,77,0.00,,,0.00,meteohub,2014-02-07 14:00:00,
2014-02-07 09:05:00,20.3,14.2,30.42,West,274,1.0,4.0,77,0.00,,,0.00,meteohub,2014-02-07 14:05:00,
2014-02-07 09:10:00,20.5,14.4,30.42,West,276,1.0,4.0,77,0.00,,,0.00,meteohub,2014-02-07 14:10:00,
2014-02-07 09:15:00,20.5,14.7,30.43,WNW,287,0.0,3.0,78,0.00,,,0.00,meteohub,2014-02-07 14:15:00,
2014-02-07 09:20:00,20.7,14.5,30.43,WNW,284,0.0,2.0,77,0.00,,,0.00,meteohub,2014-02-07 14:20:00,
2014-02-07 09:26:00,20.7,14.9,30.43,NW,310,0.0,2.0,78,0.00,,,0.00,meteohub,2014-02-07 14:26:00,
2014-02-07 09:31:00,20.8,15.1,30.43,NW,311,0.0,1.0,78,0.00,,,0.00,meteohub,2014-02-07 14:31:00,
2014-02-07 09:36:00,21.0,14.9,30.43,West,276,0.0,1.0,77,0.00,,,0.00,meteohub,2014-02-07 14:36:00,
2014-02-07 09:41:00,20.8,14.7,30.43,NNE,18,0.0,1.0,77,0.00,,,0.00,meteohub,2014-02-07 14:41:00,
2014-02-07 09:46:00,20.7,14.5,30.43,NE,47,0.0,1.0,77,0.00,,,0.00,meteohub,2014-02-07 14:46:00,
2014-02-07 09:51:00,20.5,14.7,30.43,North,8,0.0,2.0,78,0.00,,,0.00,meteohub,2014-02-07 14:51:00,
2014-02-07 09:56:00,20.5,14.4,30.43,North,6,0.0,2.0,77,0.00,,,0.00,meteohub,2014-02-07 14:56:00,
2014-02-07 10:01:00,20.5,14.7,30.44,WNW,296,0.0,2.0,78,0.00,,,0.00,meteohub,2014-02-07 15:01:00,
2014-02-07 10:06:00,20.5,14.4,30.43,West,280,2.0,2.0,77,0.00,,,0.00,meteohub,2014-02-07 15:06:00,
2014-02-07 10:11:00,20.7,14.9,30.43,North,354,1.0,3.0,78,0.00,,,0.00,meteohub,2014-02-07 15:11:00,
2014-02-07 10:16:00,21.0,14.9,30.43,West,269,0.0,3.0,77,0.00,,,0.00,meteohub,2014-02-07 15:16:00,
2014-02-07 10:21:00,21.0,14.7,30.43,North,1,0.0,3.0,76,0.00,,,0.00,meteohub,2014-02-07 15:21:00,
2014-02-07 10:26:00,21.0,14.7,30.44,SW,228,0.0,2.0,76,0.00,,,0.00,meteohub,2014-02-07 15:26:00,
2014-02-07 10:31:00,21.2,14.9,30.43,West,281,0.0,2.0,76,0.00,,,0.00,meteohub,2014-02-07 15:31:00,
2014-02-07 10:36:00,21.2,14.9,30.43,NNW,344,0.0,2.0,76,0.00,,,0.00,meteohub,2014-02-07 15:36:00,
2014-02-07 10:41:00,21.6,15.3,30.44,WNW,288,0.0,1.0,76,0.00,,,0.00,meteohub,2014-02-07 15:41:00,
2014-02-07 10:46:00,21.7,15.1,30.44,North,358,0.0,1.0,75,0.00,,,0.00,meteohub,2014-02-07 15:46:00,
2014-02-07 10:51:00,21.9,15.3,30.44,WSW,250,0.0,1.0,75,0.00,,,0.00,meteohub,2014-02-07 15:51:00,
2014-02-07 10:56:00,22.1,15.4,30.44,NW,312,0.0,2.0,75,0.00,,,0.00,meteohub,2014-02-07 15:56:00,
2014-02-07 11:01:00,22.8,16.2,30.44,NW,311,0.0,2.0,75,0.00,,,0.00,meteohub,2014-02-07 16:01:00,
2014-02-07 11:07:00,22.8,16.2,30.44,WNW,290,0.0,1.0,75,0.00,,,0.00,meteohub,2014-02-07 16:07:00,
2014-02-07 11:12:00,22.5,15.4,30.44,West,271,0.0,1.0,74,0.00,,,0.00,meteohub,2014-02-07 16:12:00,
2014-02-07 11:17:00,22.5,15.8,30.45,WSW,256,0.0,1.0,75,0.00,,,0.00,meteohub,2014-02-07 16:17:00,
2014-02-07 11:22:00,22.6,15.6,30.45,East,89,0.0,3.0,74,0.00,,,0.00,meteohub,2014-02-07 16:22:00,
2014-02-07 11:27:00,22.8,15.4,30.45,West,259,0.0,3.0,73,0.00,,,0.00,meteohub,2014-02-07 16:27:00,
2014-02-07 11:32:00,22.8,15.4,30.45,West,274,3.0,4.0,73,0.00,,,0.00,meteohub,2014-02-07 16:32:00,
2014-02-07 11:37:00,22.8,15.4,30.44,NW,319,0.0,6.0,73,0.00,,,0.00,meteohub,2014-02-07 16:37:00,
2014-02-07 11:42:00,22.8,15.1,30.44,North,0,0.0,11.0,72,0.00,,,0.00,meteohub,2014-02-07 16:42:00,
2014-02-07 11:47:00,23.0,15.6,30.44,WNW,291,0.0,11.0,73,0.00,,,0.00,meteohub,2014-02-07 16:47:00,
2014-02-07 11:52:00,23.2,15.4,30.43,WSW,238,4.0,11.0,72,0.00,,,0.00,meteohub,2014-02-07 16:52:00,
2014-02-07 11:57:00,23.2,15.4,30.43,WNW,293,2.0,13.0,72,0.00,,,0.00,meteohub,2014-02-07 16:57:00,
2014-02-07 12:02:00,23.4,16.0,30.43,West,281,4.0,13.0,73,0.00,,,0.00,meteohub,2014-02-07 17:02:00,
2014-02-07 12:07:00,23.5,15.4,30.43,WSW,248,3.0,13.0,71,0.00,,,0.00,meteohub,2014-02-07 17:07:00,
2014-02-07 12:12:00,23.9,15.8,30.42,WSW,252,3.0,10.0,71,0.00,,,0.00,meteohub,2014-02-07 17:12:00,
2014-02-07 12:17:00,23.7,15.4,30.42,WSW,238,5.0,10.0,70,0.00,,,0.00,meteohub,2014-02-07 17:17:00,
2014-02-07 12:22:00,24.1,15.4,30.42,West,280,3.0,10.0,69,0.00,,,0.00,meteohub,2014-02-07 17:22:00,
2014-02-07 12:27:00,24.4,16.0,30.41,WNW,288,2.0,8.0,70,0.00,,,0.00,meteohub,2014-02-07 17:27:00,
2014-02-07 12:32:00,25.0,16.3,30.41,SW,232,0.0,8.0,69,0.02,,,0.02,meteohub,2014-02-07 17:32:00,
2014-02-07 12:37:00,25.7,16.0,30.41,WSW,253,2.0,8.0,66,0.13,,,0.13,meteohub,2014-02-07 17:37:00,
2014-02-07 12:42:00,25.2,15.4,30.40,SW,231,2.0,7.0,66,0.16,,,0.16,meteohub,2014-02-07 17:42:00,
2014-02-07 12:47:00,25.2,15.4,30.40,NNW,328,3.0,8.0,66,0.21,,,0.21,meteohub,2014-02-07 17:47:00,
2014-02-07 12:53:00,25.2,15.4,30.40,West,280,2.0,11.0,66,0.21,,,0.21,meteohub,2014-02-07 17:53:00,
2014-02-07 12:58:00,25.2,15.1,30.40,SSW,208,1.0,12.0,65,0.21,,,0.21,meteohub,2014-02-07 17:58:00,
2014-02-07 13:03:00,25.3,15.6,30.40,SSW,212,2.0,12.0,66,0.21,,,0.21,meteohub,2014-02-07 18:03:00,
2014-02-07 13:08:00,25.5,15.1,30.41,WNW,295,3.0,12.0,64,0.22,,,0.22,meteohub,2014-02-07 18:08:00,
2014-02-07 13:13:00,25.5,15.1,30.40,SW,228,5.0,9.0,64,0.23,,,0.23,meteohub,2014-02-07 18:13:00,
2014-02-07 13:18:00,25.9,15.1,30.40,SW,215,3.0,10.0,63,0.24,,,0.24,meteohub,2014-02-07 18:18:00,
2014-02-07 13:23:00,26.8,15.8,30.40,SSW,192,6.0,13.0,63,0.24,,,0.24,meteohub,2014-02-07 18:23:00,
2014-02-07 13:28:00,27.3,15.6,30.40,ESE,114,3.0,13.0,61,0.24,,,0.24,meteohub,2014-02-07 18:28:00,
2014-02-07 13:33:00,27.0,14.9,30.40,West,273,3.0,13.0,60,0.14,,,0.24,meteohub,2014-02-07 18:33:00,
2014-02-07 13:38:00,26.2,15.1,30.39,SW,221,0.0,12.0,62,0.09,,,0.24,meteohub,2014-02-07 18:38:00,
2014-02-07 13:43:00,25.9,14.7,30.39,WNW,287,1.0,12.0,62,0.08,,,0.24,meteohub,2014-02-07 18:43:00,
2014-02-07 13:48:00,25.7,14.9,30.39,SSE,167,3.0,10.0,63,0.03,,,0.24,meteohub,2014-02-07 18:48:00,
2014-02-07 13:53:00,25.7,14.5,30.39,West,278,6.0,11.0,62,0.03,,,0.24,meteohub,2014-02-07 18:53:00,
2014-02-07 13:58:00,25.5,14.7,30.39,West,270,3.0,11.0,63,0.03,,,0.24,meteohub,2014-02-07 18:58:00,
2014-02-07 14:03:00,25.7,14.9,30.39,SW,231,0.0,11.0,63,0.03,,,0.24,meteohub,2014-02-07 19:03:00,
2014-02-07 14:08:00,26.1,14.9,30.39,NNW,347,0.0,9.0,62,0.02,,,0.24,meteohub,2014-02-07 19:08:00,
2014-02-07 14:13:00,26.4,14.7,30.39,SW,228,2.0,11.0,61,0.01,,,0.24,meteohub,2014-02-07 19:13:00,
2014-02-07 14:18:00,26.8,15.4,30.39,East,91,2.0,11.0,62,0.00,,,0.24,meteohub,2014-02-07 19:18:00,
2014-02-07 14:23:00,27.0,14.9,30.38,WSW,244,3.0,11.0,60,0.00,,,0.24,meteohub,2014-02-07 19:23:00,
2014-02-07 14:28:00,27.3,14.9,30.39,West,271,3.0,8.0,59,0.00,,,0.24,meteohub,2014-02-07 19:28:00,
2014-02-07 14:33:00,27.1,14.4,30.38,South,181,0.0,7.0,58,0.00,,,0.24,meteohub,2014-02-07 19:33:00,
2014-02-07 14:39:00,27.1,15.1,30.39,WNW,284,4.0,9.0,60,0.00,,,0.24,meteohub,2014-02-07 19:39:00,
2014-02-07 14:44:00,26.4,14.4,30.39,WSW,250,5.0,10.0,60,0.00,,,0.24,meteohub,2014-02-07 19:44:00,
2014-02-07 14:49:00,26.4,14.4,30.39,SW,215,2.0,10.0,60,0.00,,,0.24,meteohub,2014-02-07 19:49:00,
2014-02-07 14:54:00,26.4,14.0,30.40,South,186,3.0,10.0,59,0.00,,,0.24,meteohub,2014-02-07 19:54:00,
2014-02-07 14:59:00,26.2,14.2,30.40,WSW,245,4.0,10.0,60,0.00,,,0.24,meteohub,2014-02-07 19:59:00,
2014-02-07 15:04:00,26.1,14.5,30.40,SW,218,4.0,10.0,61,0.00,,,0.24,meteohub,2014-02-07 20:04:00,
2014-02-07 15:09:00,25.9,14.4,30.40,West,269,4.0,10.0,61,0.00,,,0.24,meteohub,2014-02-07 20:09:00,
2014-02-07 15:14:00,25.9,13.5,30.40,West,266,4.0,12.0,59,0.00,,,0.24,meteohub,2014-02-07 20:14:00,
2014-02-07 15:19:00,25.9,13.8,30.40,West,280,4.0,15.0,60,0.00,,,0.24,meteohub,2014-02-07 20:19:00,
2014-02-07 15:24:00,25.7,14.2,30.40,WNW,284,0.0,15.0,61,0.00,,,0.24,meteohub,2014-02-07 20:24:00,
2014-02-07 15:29:00,25.7,13.8,30.40,West,272,1.0,15.0,60,0.00,,,0.24,meteohub,2014-02-07 20:29:00,
2014-02-07 15:34:00,25.3,13.1,30.40,West,263,5.0,9.0,59,0.00,,,0.24,meteohub,2014-02-07 20:34:00,
2014-02-07 15:39:00,25.2,13.3,30.40,WNW,284,7.0,9.0,60,0.00,,,0.24,meteohub,2014-02-07 20:39:00,
2014-02-07 15:44:00,25.0,13.1,30.40,West,262,4.0,10.0,60,0.00,,,0.24,meteohub,2014-02-07 20:44:00,
2014-02-07 15:49:00,25.0,13.5,30.40,WNW,285,1.0,11.0,61,0.00,,,0.24,meteohub,2014-02-07 20:49:00,
2014-02-07 15:54:00,25.2,13.6,30.40,SSW,201,1.0,11.0,61,0.00,,,0.24,meteohub,2014-02-07 20:54:00,
2014-02-07 15:59:00,25.0,13.5,30.40,West,264,5.0,11.0,61,0.00,,,0.24,meteohub,2014-02-07 20:59:00,
2014-02-07 16:04:00,25.3,13.8,30.40,WNW,299,1.0,10.0,61,0.00,,,0.24,meteohub,2014-02-07 21:04:00,
2014-02-07 16:10:00,25.5,13.6,30.41,WNW,292,2.0,10.0,60,0.00,,,0.24,meteohub,2014-02-07 21:10:00,
2014-02-07 16:15:00,25.3,13.1,30.41,West,266,5.0,7.0,59,0.00,,,0.24,meteohub,2014-02-07 21:15:00,
2014-02-07 16:20:00,25.5,13.6,30.41,WNW,295,0.0,10.0,60,0.00,,,0.24,meteohub,2014-02-07 21:20:00,
2014-02-07 16:25:00,25.7,13.3,30.41,WNW,300,2.0,10.0,59,0.00,,,0.24,meteohub,2014-02-07 21:25:00,
2014-02-07 16:30:00,25.9,13.5,30.41,SSW,210,0.0,10.0,59,0.00,,,0.24,meteohub,2014-02-07 21:30:00,
2014-02-07 16:35:00,26.2,13.8,30.41,SSW,203,1.0,9.0,59,0.00,,,0.24,meteohub,2014-02-07 21:35:00,
2014-02-07 16:40:00,26.6,13.8,30.41,ESE,105,1.0,9.0,58,0.00,,,0.24,meteohub,2014-02-07 21:40:00,
2014-02-07 16:45:00,26.4,13.6,30.41,SW,228,3.0,5.0,58,0.00,,,0.24,meteohub,2014-02-07 21:45:00,
2014-02-07 16:50:00,26.1,12.9,30.41,West,259,5.0,7.0,57,0.00,,,0.24,meteohub,2014-02-07 21:50:00,
2014-02-07 16:55:00,25.9,13.1,30.41,SW,218,0.0,7.0,58,0.00,,,0.24,meteohub,2014-02-07 21:55:00,
2014-02-07 17:00:00,25.3,12.6,30.41,WNW,285,0.0,7.0,58,0.00,,,0.24,meteohub,2014-02-07 22:00:00,
2014-02-07 17:05:00,24.8,12.6,30.42,West,271,1.0,6.0,59,0.00,,,0.24,meteohub,2014-02-07 22:05:00,
2014-02-07 17:10:00,24.3,12.0,30.42,WSW,256,5.0,6.0,59,0.00,,,0.24,meteohub,2014-02-07 22:10:00,
2014-02-07 17:15:00,24.1,11.8,30.42,NE,46,1.0,5.0,59,0.00,,,0.24,meteohub,2014-02-07 22:15:00,
2014-02-07 17:20:00,23.7,11.5,30.42,West,274,4.0,5.0,59,0.01,,,0.25,meteohub,2014-02-07 22:20:00,
2014-02-07 17:25:00,23.5,11.3,30.42,SW,235,0.0,8.0,59,0.01,,,0.25,meteohub,2014-02-07 22:25:00,
2014-02-07 17:30:00,23.4,11.5,30.42,SSW,207,4.0,8.0,60,0.01,,,0.25,meteohub,2014-02-07 22:30:00,
2014-02-07 17:35:00,23.4,11.5,30.42,SW,221,4.0,7.0,60,0.01,,,0.25,meteohub,2014-02-07 22:35:00,
2014-02-07 17:40:00,23.2,11.3,30.43,WSW,248,2.0,7.0,60,0.01,,,0.25,meteohub,2014-02-07 22:40:00,
2014-02-07 17:45:00,23.2,11.3,30.43,SSE,150,0.0,7.0,60,0.01,,,0.25,meteohub,2014-02-07 22:45:00,
2014-02-07 17:50:00,22.8,11.3,30.42,West,276,0.0,6.0,61,0.01,,,0.25,meteohub,2014-02-07 22:50:00,
2014-02-07 17:55:00,22.5,11.1,30.43,West,278,2.0,6.0,61,0.01,,,0.25,meteohub,2014-02-07 22:55:00,
2014-02-07 18:01:00,22.6,10.8,30.43,SW,232,0.0,7.0,60,0.01,,,0.25,meteohub,2014-02-07 23:01:00,
2014-02-07 18:06:00,22.3,10.6,30.43,NW,326,1.0,7.0,60,0.01,,,0.25,meteohub,2014-02-07 23:06:00,
2014-02-07 18:11:00,22.3,10.9,30.43,SSW,203,0.0,7.0,61,0.01,,,0.25,meteohub,2014-02-07 23:11:00,
2014-02-07 18:16:00,22.1,10.4,30.43,SSW,196,0.0,2.0,60,0.01,,,0.25,meteohub,2014-02-07 23:16:00,
2014-02-07 18:21:00,21.9,10.6,30.43,SSW,209,0.0,3.0,61,0.00,,,0.25,meteohub,2014-02-07 23:21:00,
2014-02-07 18:26:00,21.7,10.8,30.43,SE,127,0.0,3.0,62,0.00,,,0.25,meteohub,2014-02-07 23:26:00,
2014-02-07 18:31:00,21.6,10.9,30.43,SE,144,0.0,3.0,63,0.00,,,0.25,meteohub,2014-02-07 23:31:00,
2014-02-07 18:36:00,21.4,10.4,30.43,SSE,160,0.0,1.0,62,0.00,,,0.25,meteohub,2014-02-07 23:36:00,
2014-02-07 18:41:00,21.0,10.4,30.43,SSW,194,0.0,1.0,63,0.00,,,0.25,meteohub,2014-02-07 23:41:00,
2014-02-07 18:46:00,20.8,10.6,30.43,SE,141,0.0,1.0,64,0.00,,,0.25,meteohub,2014-02-07 23:46:00,
2014-02-07 18:51:00,20.7,11.1,30.43,South,181,0.0,1.0,66,0.00,,,0.25,meteohub,2014-02-07 23:51:00,
2014-02-07 18:56:00,20.5,10.6,30.43,South,181,0.0,1.0,65,0.00,,,0.25,meteohub,2014-02-07 23:56:00,
2014-02-07 19:01:00,20.7,10.8,30.43,SE,136,0.0,1.0,65,0.00,,,0.25,meteohub,2014-02-08 00:01:00,
2014-02-07 19:06:00,20.5,10.6,30.43,SW,225,0.0,1.0,65,0.00,,,0.25,meteohub,2014-02-08 00:06:00,
2014-02-07 19:11:00,20.1,10.6,30.43,South,177,0.0,1.0,66,0.00,,,0.25,meteohub,2014-02-08 00:11:00,
2014-02-07 19:16:00,19.9,10.8,30.43,SSE,157,0.0,0.0,67,0.00,,,0.25,meteohub,2014-02-08 00:16:00,
2014-02-07 19:21:00,19.6,10.4,30.43,SE,146,0.0,1.0,67,0.00,,,0.25,meteohub,2014-02-08 00:21:00,
2014-02-07 19:26:00,19.4,10.2,30.43,SSE,147,0.0,1.0,67,0.00,,,0.25,meteohub,2014-02-08 00:26:00,
2014-02-07 19:31:00,19.0,10.6,30.43,SE,136,0.0,1.0,69,0.00,,,0.25,meteohub,2014-02-08 00:31:00,
2014-02-07 19:36:00,18.7,10.6,30.43,SE,134,0.0,0.0,70,0.00,,,0.25,meteohub,2014-02-08 00:36:00,
2014-02-07 19:41:00,18.3,10.6,30.43,SE,131,0.0,0.0,71,0.00,,,0.25,meteohub,2014-02-08 00:41:00,
2014-02-07 19:47:00,18.1,10.6,30.43,SE,131,0.0,1.0,72,0.00,,,0.25,meteohub,2014-02-08 00:47:00,
2014-02-07 19:52:00,17.8,10.6,30.42,SE,131,0.0,1.0,73,0.00,,,0.25,meteohub,2014-02-08 00:52:00,
2014-02-07 19:57:00,17.4,10.6,30.42,SE,129,0.0,1.0,74,0.00,,,0.25,meteohub,2014-02-08 00:57:00,
2014-02-07 20:02:00,17.2,10.4,30.42,SE,129,0.0,0.0,74,0.00,,,0.25,meteohub,2014-02-08 01:02:00,
2014-02-07 20:07:00,17.1,10.6,30.42,ESE,122,0.0,0.0,75,0.00,,,0.25,meteohub,2014-02-08 01:07:00,
2014-02-07 20:12:00,16.9,10.6,30.42,ESE,122,0.0,0.0,76,0.00,,,0.25,meteohub,2014-02-08 01:12:00,
2014-02-07 20:17:00,16.5,10.6,30.42,ESE,120,1.0,1.0,77,0.00,,,0.25,meteohub,2014-02-08 01:17:00,
2014-02-07 20:22:00,16.3,10.4,30.42,ESE,116,0.0,1.0,77,0.00,,,0.25,meteohub,2014-02-08 01:22:00,
2014-02-07 20:27:00,16.2,10.6,30.42,ESE,115,0.0,1.0,78,0.00,,,0.25,meteohub,2014-02-08 01:27:00,
2014-02-07 20:32:00,16.0,10.4,30.42,ESE,115,0.0,1.0,78,0.00,,,0.25,meteohub,2014-02-08 01:32:00,
2014-02-07 20:37:00,15.8,10.2,30.42,ESE,115,0.0,1.0,78,0.00,,,0.25,meteohub,2014-02-08 01:37:00,
2014-02-07 20:42:00,15.6,10.2,30.42,ESE,115,0.0,0.0,79,0.00,,,0.25,meteohub,2014-02-08 01:42:00,
2014-02-07 20:47:00,15.4,10.0,30.42,ESE,115,0.0,0.0,79,0.00,,,0.25,meteohub,2014-02-08 01:47:00,
2014-02-07 20:52:00,15.3,10.2,30.42,ESE,119,0.0,0.0,80,0.00,,,0.25,meteohub,2014-02-08 01:52:00,
2014-02-07 20:57:00,15.1,10.2,30.42,ESE,118,0.0,0.0,81,0.00,,,0.25,meteohub,2014-02-08 01:57:00,
2014-02-07 21:02:00,14.9,10.2,30.42,ESE,117,0.0,0.0,81,0.00,,,0.25,meteohub,2014-02-08 02:02:00,
2014-02-07 21:07:00,14.7,10.0,30.42,ESE,117,0.0,0.0,81,0.00,,,0.25,meteohub,2014-02-08 02:07:00,
2014-02-07 21:13:00,14.5,9.9,30.43,ESE,117,0.0,0.0,81,0.00,,,0.25,meteohub,2014-02-08 02:13:00,
2014-02-07 21:18:00,14.2,9.7,30.42,ESE,117,0.0,0.0,82,0.00,,,0.25,meteohub,2014-02-08 02:18:00,
2014-02-07 21:23:00,14.0,9.5,30.42,ESE,117,0.0,0.0,82,0.00,,,0.25,meteohub,2014-02-08 02:23:00,
2014-02-07 21:28:00,14.2,10.0,30.42,ESE,117,0.0,0.0,83,0.00,,,0.25,meteohub,2014-02-08 02:28:00,
2014-02-07 21:33:00,14.2,10.0,30.42,ESE,117,0.0,0.0,83,0.00,,,0.25,meteohub,2014-02-08 02:33:00,
2014-02-07 21:38:00,14.2,10.0,30.42,ESE,117,0.0,0.0,83,0.00,,,0.25,meteohub,2014-02-08 02:38:00,
2014-02-07 21:43:00,14.0,9.9,30.42,ESE,118,0.0,0.0,83,0.00,,,0.25,meteohub,2014-02-08 02:43:00,
2014-02-07 21:48:00,13.8,9.7,30.42,ESE,118,0.0,0.0,83,0.00,,,0.25,meteohub,2014-02-08 02:48:00,
2014-02-07 21:53:00,13.6,9.5,30.42,ESE,118,0.0,0.0,83,0.00,,,0.25,meteohub,2014-02-08 02:53:00,
2014-02-07 21:58:00,13.5,9.3,30.42,ESE,118,0.0,0.0,83,0.00,,,0.25,meteohub,2014-02-08 02:58:00,
2014-02-07 22:03:00,13.1,9.0,30.42,ESE,119,0.0,0.0,83,0.00,,,0.25,meteohub,2014-02-08 03:03:00,
2014-02-07 22:08:00,12.7,8.8,30.42,ESE,117,0.0,0.0,84,0.00,,,0.25,meteohub,2014-02-08 03:08:00,
2014-02-07 22:13:00,12.6,8.6,30.41,ESE,119,0.0,0.0,84,0.00,,,0.25,meteohub,2014-02-08 03:13:00,
2014-02-07 22:18:00,12.4,9.0,30.41,ESE,118,0.0,0.0,86,0.00,,,0.25,meteohub,2014-02-08 03:18:00,
2014-02-07 22:23:00,12.4,9.0,30.41,ESE,118,0.0,0.0,86,0.00,,,0.25,meteohub,2014-02-08 03:23:00,
2014-02-07 22:28:00,12.2,8.8,30.41,ESE,118,0.0,0.0,86,0.00,,,0.25,meteohub,2014-02-08 03:28:00,
2014-02-07 22:33:00,12.0,8.6,30.41,ESE,119,0.0,0.0,86,0.00,,,0.25,meteohub,2014-02-08 03:33:00,
2014-02-07 22:38:00,11.8,8.4,30.40,ESE,118,0.0,0.0,86,0.00,,,0.25,meteohub,2014-02-08 03:38:00,
2014-02-07 22:43:00,11.5,7.9,30.40,ESE,118,0.0,0.0,85,0.00,,,0.25,meteohub,2014-02-08 03:43:00,
2014-02-07 22:48:00,11.5,8.1,30.40,ESE,118,0.0,0.0,86,0.00,,,0.25,meteohub,2014-02-08 03:48:00,
2014-02-07 22:53:00,11.5,8.4,30.40,ESE,118,0.0,0.0,87,0.00,,,0.25,meteohub,2014-02-08 03:53:00,
2014-02-07 22:58:00,11.1,8.1,30.41,ESE,118,0.0,0.0,87,0.00,,,0.25,meteohub,2014-02-08 03:58:00,
2014-02-07 23:04:00,11.1,8.1,30.41,ESE,118,0.0,0.0,87,0.00,,,0.25,meteohub,2014-02-08 04:04:00,
2014-02-07 23:09:00,10.8,7.7,30.41,ESE,118,0.0,0.0,87,0.00,,,0.25,meteohub,2014-02-08 04:09:00,
2014-02-07 23:14:00,10.8,7.9,30.41,ESE,118,0.0,0.0,88,0.00,,,0.25,meteohub,2014-02-08 04:14:00,
2014-02-07 23:19:00,10.4,7.3,30.41,ESE,118,0.0,0.0,87,0.00,,,0.25,meteohub,2014-02-08 04:19:00,
2014-02-07 23:24:00,10.0,7.0,30.41,ESE,118,0.0,0.0,87,0.00,,,0.25,meteohub,2014-02-08 04:24:00,
2014-02-07 23:29:00,9.9,7.0,30.42,ESE,118,0.0,0.0,88,0.00,,,0.25,meteohub,2014-02-08 04:29:00,
2014-02-07 23:34:00,10.0,7.5,30.41,ESE,118,0.0,0.0,89,0.00,,,0.25,meteohub,2014-02-08 04:34:00,
2014-02-07 23:39:00,10.0,7.5,30.41,ESE,118,0.0,0.0,89,0.00,,,0.25,meteohub,2014-02-08 04:39:00,
2014-02-07 23:44:00,10.0,7.7,30.41,ESE,118,0.0,0.0,90,0.00,,,0.25,meteohub,2014-02-08 04:44:00,
2014-02-07 23:49:00,10.2,7.9,30.42,ESE,118,0.0,0.0,90,0.00,,,0.25,meteohub,2014-02-08 04:49:00,
2014-02-07 23:54:00,10.2,7.9,30.41,ESE,118,0.0,0.0,90,0.00,,,0.25,meteohub,2014-02-08 04:54:00,
2014-02-07 23:59:00,10.0,7.5,30.41,ESE,118,0.0,0.0,89,0.00,,,0.25,meteohub,2014-02-08 04:59:00,